[[{"header":{"parameterUnit":"m.s-1","parameterCategory":1,"la1":30.2991,"la2":30.254,"lo1":-89.0895,"lo2":-89.0444,"dy":0.0017,"dx":0.0017,"nx":28,"ny":28,"refTime":"2025-03-15T09:00:00:Z","depth":0,"parameterNumber":2,"parameterNumberName":"U-component_of_WINDS"},"data":[0,0,0,0,0,0,0,0,0,0,0,0,0,0,0,0,0,0,0,0,0,0,0,0,0,0,0,0,0,0,0,0,0,0,0,0,0,0,0,0,0,0,0,0,0,0,0,0,0,0,0,0,0,0,0,0,0,0,4.7399,4.7399,0,4.745,4.7451,4.7451,4.7361,4.7358,4.7355,4.7352,4.7406,4.741,4.7414,0,0,0,0,0,0,0,0,0,0,0,0,0,4.7223,4.7227,4.7399,4.7399,4.74,4.745,4.7451,4.7451,4.7362,4.7358,4.7354,4.7351,4.7405,4.741,4.7415,0,0,0,0,0,0,0,0,0,0,0,0,0,4.729,4.7228,4.7398,4.7361,4.7358,4.745,4.7451,4.7451,4.7362,4.7358,4.7353,4.7349,4.7403,4.7409,4.7416,4.7546,0,0,4.7435,4.7438,0,0,0,0,0,0,0,0,4.7286,4.7296,4.7366,4.7364,4.7361,4.7394,4.7408,4.7483,4.7364,4.7361,4.7352,4.7347,4.7406,4.7412,4.7431,4.7549,4.7551,4.7436,4.7439,4.7442,4.7444,0,0,0,0,0,0,0,4.7281,4.7293,4.7419,4.7367,4.7364,4.7342,4.7346,4.7422,4.7408,4.7361,4.7354,4.7362,4.7404,4.7426,4.7432,4.7552,4.7435,4.7441,4.7445,4.7448,4.7777,4.7781,0,0,0,0,0,0,4.7281,4.729,4.7417,4.742,4.7311,4.7349,4.7354,4.7388,4.7407,4.7406,4.7366,4.7357,4.7417,4.7425,4.7434,4.7586,4.7442,4.7448,4.7452,4.7772,4.7778,4.7783,0,0,0,0,0,0,4.7278,4.7294,4.7415,4.7354,4.7367,4.7357,4.7396,4.7392,4.7413,4.7411,4.7408,4.739,4.7414,4.7425,4.7518,4.7587,4.7451,4.7457,4.7766,4.7774,4.7781,4.7893,0,0,0,0,0,0,4.7273,4.7293,4.7342,4.7355,4.7371,4.7499,4.7401,4.7396,4.7425,4.7414,4.7433,4.7432,4.7411,4.7509,4.7525,4.7593,4.7462,4.776,4.7769,4.7778,4.7883,4.7903,4.7921,0,0,0,0,0,4.7267,4.7372,4.7345,4.7361,4.7432,4.7503,4.7512,4.7485,4.743,4.748,4.7478,4.7432,4.7577,4.752,4.7536,4.7608,4.7755,4.7767,4.7777,4.7875,4.7899,4.792,0,0,0,0,0,0,4.7368,4.7373,4.7343,4.7456,4.748,4.7488,4.7549,4.7512,4.7553,4.7541,4.7507,4.7512,4.7612,4.762,4.7555,4.7734,4.7657,4.7672,4.7725,4.7749,4.7767,4.7762,4.7467,0,0,0,0,0,4.7403,4.746,4.7462,4.7561,4.7575,4.756,4.759,4.7567,4.7591,4.76,4.7606,4.763,4.7681,4.7716,4.7763,4.7884,4.7886,4.7942,4.796,4.7976,4.7988,4.8052,4.8076,4.7819,4.7819,4.7819,0,0,4.7477,4.7487,4.7525,4.7582,4.7597,4.7657,4.7569,4.7636,4.768,4.7611,4.7698,4.7704,4.7729,4.7837,4.7885,4.7846,4.806,4.799,4.8002,4.8006,4.8065,4.809,4.8111,4.7827,4.7826,4.7824,0,0,4.764,4.7655,4.7737,4.7755,4.778,4.777,4.779,4.7804,4.7804,4.7892,4.7841,4.7893,4.7982,4.8001,4.8023,4.8195,4.8152,4.8211,4.8308,4.837,4.839,4.8408,4.8467,4.8489,4.8224,4.8224,4.8225,0,4.7728,4.7815,4.7785,4.7855,4.7881,4.7821,4.7905,4.7924,4.7963,4.7982,4.7939,4.8048,4.8062,4.8172,4.8214,4.8234,4.8255,4.8208,4.839,4.8407,4.8423,4.8479,4.8502,4.8231,4.823,4.823,4.8229,0,4.7921,4.7983,4.8047,4.8086,4.8119,4.8196,4.8177,4.8215,4.819,4.8184,4.8274,4.8287,4.8335,4.836,4.8337,4.8468,4.8442,4.8396,4.8317,4.8455,4.8507,4.8528,4.8241,4.8238,4.8236,4.8235,0,0,4.8148,4.8169,4.8193,4.8209,4.8233,4.8279,4.8354,4.84,4.8432,4.8462,4.8522,4.8599,4.8555,4.858,4.8558,4.8612,4.8745,4.8558,4.8558,4.859,4.8888,4.8921,4.8947,4.8718,4.8722,4.8725,4.8885,0,4.8309,4.8436,4.8411,4.8534,4.859,4.8534,4.8598,4.862,4.8617,4.8663,4.866,4.8714,4.8653,4.8667,4.8719,4.8718,4.8804,4.8706,4.8772,4.8775,4.8765,4.8974,4.901,4.916,4.8905,4.8909,4.8911,0,4.8513,4.8549,4.8678,4.8692,4.8714,4.8772,4.8812,4.8858,4.8881,4.8875,4.8903,4.887,4.8943,4.8866,4.8965,4.8899,4.8925,4.8929,4.8934,4.8937,4.885,4.8981,4.9207,4.9229,4.8943,4.8941,4.8938,0,4.8663,4.8744,4.8831,4.8848,4.8866,4.8908,4.8917,4.8936,4.8965,4.9001,4.9019,4.9063,4.9087,4.9121,4.9101,4.9047,4.9204,4.9125,4.92,4.92,4.9233,4.9231,4.9465,4.9255,4.9254,4.9254,4.9253,0,4.8843,4.8924,4.8899,4.8952,4.9041,4.9012,4.91,4.9103,4.912,4.9173,4.9129,4.9179,4.9151,4.92,4.9185,4.9268,4.928,4.9276,4.9271,4.9279,4.9279,4.9294,4.9282,4.926,4.9258,4.9257,4.9256,0,4.9025,4.9011,4.9102,4.9112,4.9117,4.9181,4.919,4.9239,4.9233,4.9301,4.9315,4.9305,4.936,4.9344,4.9404,4.9394,4.9499,4.9482,4.9491,4.9486,4.956,4.9553,4.981,4.9841,4.9613,4.9615,4.9617,0,4.9139,4.92,4.9216,4.9248,4.9261,4.9314,4.9343,4.9317,4.935,4.938,4.9426,4.9477,4.9515,4.9605,4.9604,4.9649,4.963,4.9718,4.9637,4.9642,4.9629,4.9624,4.9629,4.9733,4.9735,4.9738,4.9739,0,4.9344,4.9334,4.9378,4.942,4.9456,4.9488,4.9516,4.9545,4.9521,4.956,4.9614,4.9645,4.9705,4.9755,4.9796,4.9806,4.9769,4.9765,4.9784,4.9792,4.9793,4.9791,4.9532,4.9759,4.9757,4.9755,4.9754,4.9754,4.9494,4.9544,4.9563,4.9614,4.9632,4.9659,4.9705,4.9705,4.975,4.9797,4.9779,4.9842,4.9863,4.9914,4.9929,4.9978,4.9944,4.9973,4.9979,4.9986,4.9994,4.9788,4.9985,4.9985,4.9984,4.9984,4.9983,0,4.9694,4.9703,4.975,4.979,4.9829,4.9792,4.982,4.9855,4.9911,4.9934,4.9973,5.0035,5.0084,5.0087,5.0132,5.017,5.0154,5.0183,5.0178,5.0181,5.0023,5.0,5.0195,5.0195,5.0195,5.0195,5.0195,5.0195,4.9802,4.9885,4.9878,4.9969,4.9978,5.0039,5.0058,5.0083,5.01,5.0172,5.0212,5.0213,5.0228,5.0274,5.0316,5.0316,5.0333,5.0368,5.0361,5.0213,5.0192,5.0172,5.015,5.0373,5.0373,5.0514,5.0515,5.0516]},{"header":{"parameterUnit":"m.s-1","parameterCategory":1,"la1":30.2991,"la2":30.254,"lo1":-89.0895,"lo2":-89.0444,"dy":0.0017,"dx":0.0017,"nx":28,"ny":28,"refTime":"2025-03-15T09:00:00:Z","depth":0,"parameterNumber":3,"parameterNumberName":"V-component_of_WINDS"},"data":[0,0,0,0,0,0,0,0,0,0,0,0,0,0,0,0,0,0,0,0,0,0,0,0,0,0,0,0,0,0,0,0,0,0,0,0,0,0,0,0,0,0,0,0,0,0,0,0,0,0,0,0,0,0,0,0,0,0,3.0351,3.0352,0,3.0471,3.0472,3.0474,3.0457,3.0455,3.0453,3.0451,3.0571,3.0576,3.0581,0,0,0,0,0,0,0,0,0,0,0,0,0,3.0103,3.0107,3.0351,3.0352,3.0354,3.0471,3.0472,3.0474,3.0457,3.0455,3.0452,3.045,3.0569,3.0575,3.0581,0,0,0,0,0,0,0,0,0,0,0,0,0,3.0215,3.0109,3.035,3.0359,3.0361,3.047,3.0472,3.0474,3.0458,3.0455,3.0452,3.0449,3.0567,3.0575,3.0582,3.0689,0,0,3.0605,3.0608,0,0,0,0,0,0,0,0,3.0209,3.0224,3.0357,3.0359,3.0361,3.0446,3.0429,3.0546,3.0459,3.0421,3.0451,3.0448,3.0532,3.0542,3.0571,3.0694,3.0699,3.0606,3.061,3.0614,3.0616,0,0,0,0,0,0,0,3.0201,3.0219,3.0398,3.0358,3.0362,3.0356,3.0369,3.0451,3.0491,3.0424,3.0423,3.0438,3.0532,3.0564,3.0574,3.0701,3.0606,3.0612,3.0617,3.062,3.0917,3.092,0,0,0,0,0,0,3.0191,3.0213,3.0394,3.0402,3.0276,3.0363,3.0377,3.0422,3.0491,3.0498,3.044,3.0437,3.0552,3.0565,3.0578,3.0707,3.0614,3.0621,3.0625,3.0913,3.0918,3.0921,0,0,0,0,0,0,3.0186,3.0208,3.0389,3.0307,3.033,3.0371,3.0421,3.0426,3.0457,3.0503,3.051,3.0465,3.055,3.0567,3.0661,3.0711,3.0624,3.0631,3.091,3.0915,3.0919,3.0966,0,0,0,0,0,0,3.0179,3.0206,3.0248,3.0308,3.0334,3.0472,3.0424,3.043,3.0471,3.0467,3.0528,3.0535,3.0549,3.065,3.0669,3.072,3.0637,3.0905,3.0912,3.0918,3.096,3.0972,3.0982,0,0,0,0,0,3.017,3.0256,3.025,3.0272,3.0388,3.0475,3.049,3.0505,3.0475,3.0517,3.0546,3.0533,3.0702,3.066,3.0681,3.0735,3.0902,3.091,3.0917,3.0955,3.097,3.0982,0,0,0,0,0,0,3.0199,3.0264,3.0258,3.0366,3.0415,3.0472,3.0526,3.052,3.0579,3.0573,3.0588,3.0602,3.0697,3.0725,3.0677,3.0841,3.0798,3.081,3.0819,3.0833,3.0844,3.0836,3.0643,0,0,0,0,0,3.0218,3.0285,3.0337,3.0427,3.0452,3.0485,3.0523,3.0531,3.0582,3.0603,3.0639,3.0688,3.0752,3.0794,3.0856,3.0964,3.0976,3.1011,3.1022,3.103,3.1041,3.11,3.1115,3.0946,3.0946,3.0946,0,0,3.0258,3.0301,3.0343,3.0434,3.0473,3.0541,3.0502,3.0576,3.0626,3.0614,3.0705,3.0733,3.0789,3.0891,3.0937,3.0917,3.109,3.104,3.1047,3.1053,3.1109,3.1125,3.1139,3.0951,3.095,3.0949,0,0,3.0365,3.0405,3.0484,3.0524,3.0585,3.0605,3.0624,3.0682,3.0701,3.0793,3.0785,3.0844,3.0954,3.0994,3.1029,3.115,3.1141,3.117,3.1227,3.1284,3.1297,3.1309,3.1353,3.1368,3.118,3.118,3.118,0,3.0407,3.051,3.0525,3.06,3.064,3.0633,3.0712,3.075,3.0827,3.0854,3.083,3.0968,3.1005,3.1116,3.1145,3.1174,3.1195,3.1163,3.1294,3.1307,3.1318,3.1359,3.1376,3.1183,3.1183,3.1182,3.1182,0,3.0558,3.063,3.0686,3.0762,3.0808,3.0885,3.091,3.0955,3.0958,3.0981,3.1074,3.1118,3.1189,3.1215,3.1218,3.1326,3.1312,3.1291,3.1248,3.1337,3.1376,3.1392,3.1188,3.1186,3.1186,3.1185,0,0,3.0688,3.0771,3.0791,3.0825,3.0891,3.0946,3.1021,3.1091,3.1129,3.1181,3.1245,3.1338,3.1319,3.1358,3.1366,3.1416,3.1509,3.1389,3.1391,3.141,3.163,3.1646,3.1664,3.1503,3.1506,3.1508,3.1626,0,3.0802,3.0938,3.0953,3.1073,3.1139,3.1132,3.1198,3.1245,3.1268,3.1326,3.135,3.1416,3.1387,3.141,3.1459,3.1488,3.1554,3.1479,3.1561,3.1564,3.1549,3.1685,3.1702,3.181,3.1641,3.1644,3.1645,0,3.0954,3.1012,3.1139,3.1195,3.1223,3.1282,3.1347,3.1403,3.1455,3.1468,3.1512,3.1513,3.1589,3.1543,3.1648,3.1597,3.1631,3.165,3.1654,3.1663,3.1611,3.1697,3.1845,3.1862,3.167,3.1668,3.1666,0,3.1036,3.1146,3.1236,3.1265,3.1333,3.1374,3.1404,3.1453,3.1494,3.155,3.1576,3.164,3.1675,3.1723,3.174,3.1705,3.1845,3.18,3.1857,3.1857,3.1888,3.1886,3.2044,3.1909,3.1909,3.1908,3.1908,0,3.1162,3.124,3.1274,3.133,3.1417,3.1433,3.1518,3.1545,3.1589,3.1649,3.1646,3.1702,3.1721,3.178,3.1793,3.1879,3.1894,3.1906,3.1909,3.1907,3.1906,3.193,3.1923,3.1913,3.1912,3.1911,3.191,0,3.1269,3.1295,3.1393,3.1449,3.1465,3.1526,3.1573,3.1626,3.1648,3.1724,3.1743,3.1777,3.1846,3.1868,3.195,3.196,3.2059,3.2055,3.2042,3.2043,3.2099,3.2094,3.2279,3.2304,3.2152,3.2153,3.2155,0,3.1348,3.1409,3.1471,3.1512,3.1543,3.1608,3.165,3.1667,3.1711,3.1774,3.1819,3.1888,3.1944,3.2054,3.2085,3.2148,3.2146,3.2206,3.2155,3.2151,3.2147,3.2144,3.215,3.2216,3.2218,3.2219,3.222,0,3.1486,3.1496,3.1557,3.1623,3.1673,3.1725,3.1775,3.1808,3.1832,3.1881,3.1952,3.1996,3.208,3.2148,3.2212,3.2241,3.2235,3.2236,3.2252,3.2251,3.2242,3.2248,3.2069,3.2232,3.223,3.223,3.2229,3.2229,3.1582,3.1635,3.1688,3.1756,3.1795,3.1842,3.1895,3.1923,3.1984,3.2055,3.2061,3.2138,3.2187,3.2273,3.2305,3.2364,3.2346,3.2371,3.2377,3.2383,3.2387,3.2232,3.2375,3.2375,3.2375,3.2374,3.2374,0,3.172,3.1753,3.1816,3.1887,3.194,3.193,3.1984,3.2029,3.2097,3.2144,3.2199,3.2281,3.2346,3.2382,3.2448,3.2488,3.2487,3.2504,3.2502,3.2509,3.2399,3.2378,3.2505,3.2505,3.2505,3.2504,3.2504,3.2504,3.1798,3.1888,3.1904,3.2012,3.2044,3.2121,3.2153,3.2195,3.2233,3.2325,3.238,3.2403,3.2445,3.2513,3.2573,3.2581,3.2606,3.2626,3.2633,3.253,3.2516,3.2504,3.2484,3.2631,3.2631,3.2737,3.2738,3.2739]}]]